Regional Weather Roundup
Issued by NWS

Home | Current Version | Previous Version | Text Only | Print | Product List | Glossary Off
Versions: 1 2 3 4 5 6 7 8 9 10 11 12 13 14 15 16 17 18 19 20 21 22 23 24 25 26 27 28 29 30 31 32 33 34 35 36 37 38 39 40 41 42 43 44 45 46 47 48 49 50

000
ASUS43 KMKX 252311
RWRWI

WISCONSIN REGIONAL WEATHER ROUNDUP
NATIONAL WEATHER SERVICE MILWAUKEE/SULLIVAN WI
600 PM CDT SUN SEP 25 2016

NOTE: "FAIR" INDICATES FEW OR NO CLOUDS BELOW 12,000 FEET WITH NO
SIGNIFICANT WEATHER AND/OR OBSTRUCTIONS TO VISIBILITY.

WIZ001-002-006>008-014>016-023>028-260000-
NORTHWEST WISCONSIN

CITY           SKY/WX    TMP DP  RH WIND       PRES   REMARKS
SUPERIOR ARPT  CLOUDY    61  55  81 SW9G17    29.78S
ASHLAND        PTCLDY    62  52  69 SW12G23   29.80R
HAYWARD        CLOUDY    61  52  72 SW7       29.83S
SIREN          LGT RAIN  58  56  92 W12       29.85S
CUMBERLAND     MOCLDY    59  52  77 W14G21    29.86R
RICE LAKE      CLOUDY    63  52  66 W12G21    29.88R
CHETEK         NOT AVBL
LADYSMITH      MOCLDY    63  52  68 SW9G16    29.88S
EAU CLAIRE     MOCLDY    63  52  67 SW9       29.88S
MENOMONIE      CLOUDY    64  54  69 W12       29.89R
NEW RICHMOND   CLOUDY    57  55  95 W10       29.90R
OSCEOLA        CLOUDY    59  59 100 W9        29.91S
$$

WIZ003>005-009-010-017-018-260000-
NORTH CENTRAL WISCONSIN

CITY           SKY/WX    TMP DP  RH WIND       PRES   REMARKS
MANITOWISH WTR NOT AVBL
ARBOR VITAE    CLOUDY    65  57  76 SW8       29.83R
WOODRUFF       CLOUDY    65  57  76 SW8       29.83R
RHINELANDER    CLOUDY    67  65  93 SW7       29.84S
EAGLE RIVER    PTCLDY    65  65 100 CALM      29.82S FOG
LAND O LAKES   MOCLDY    66  64  94 S6        29.83S
PHILLIPS       MOCLDY    63  54  72 SW9G17    29.84R
TOMAHAWK       MOCLDY    65  56  71 W13       29.85R
MEDFORD        MOCLDY    63  56  78 W8        29.87R
MERRILL        PTCLDY    67  60  78 W12       29.85R
$$

WIZ029-030-035-036-043>047-260000-
CENTRAL WISCONSIN

CITY           SKY/WX    TMP DP  RH WIND       PRES   REMARKS
WAUSAU         CLOUDY    68  62  81 W15       29.84R
MOSINEE        PTCLDY    68  63  83 W15       29.86R
MARSHFIELD     PTCLDY    65  53  65 W10       29.87R
STEVENS POINT  MOCLDY    68  63  82 W9        29.85S
WAUPACA        CLOUDY    73  71  92 S3        29.84S
WAUTOMA        CLOUDY    73  67  81 SW6       29.85S
WISC RAPIDS    PTCLDY    69  60  73 W16G24    29.88R
CAMP DOUGLAS   CLOUDY    67  58  72 W16G25    29.89R
$$

WIZ011>013-019>022-031-037>040-048>050-260000-
NORTHEAST WISCONSIN

CITY           SKY/WX    TMP DP  RH WIND       PRES   REMARKS
ANTIGO         CLOUDY    66  65  99 CALM      29.84F FOG
SHAWANO        CLOUDY    73  70  90 CALM      29.84S
OCONTO         NOT AVBL
STURGEON BAY   LGT RAIN  64  64 100 S18G25    29.86F FOG
GREEN BAY      CLOUDY    68  68 100 S8        29.84F
MANITOWOC      CLOUDY    67  64  90 MISG      29.85F
APPLETON       CLOUDY    72  72 100 S5        29.83F FOG
CLINTONVILLE   NOT AVBL
OSHKOSH        CLOUDY    71  67  87 S5        29.85S
$$

WIZ032>034-041-042-053>061-260000-
SOUTHWEST WISCONSIN

CITY           SKY/WX    TMP DP  RH WIND       PRES   REMARKS
LA CROSSE      CLOUDY    68  55  63 SW10      29.90S
SPARTA         CLOUDY    65  54  68 W3        29.92R
VIROQUA        CLOUDY    64  52  66 W10G16    29.94R
BOSCOBEL       CLOUDY    68  53  58 W13G25    29.94R
PRAIRIE DU CHI CLOUDY    66  51  57 W9        29.96R
PLATTEVILLE    PTCLDY    68  57  67 W12G22    29.96R
$$

WIZ056-057-062-063-064-067-068-260000-
SOUTH CENTRAL WISCONSIN

CITY           SKY/WX    TMP DP  RH WIND       PRES   REMARKS
REEDSBURG      NOT AVBL
BARABOO/DELLS  CLOUDY    71  63  74 W13G20    29.88R
LONE ROCK      CLOUDY    71  58  63 W13G23    29.91R
MINERAL POINT  CLOUDY    70  55  60 W16G23    29.94R
MADISON        CLOUDY    74  65  73 VRB6      29.87S
MIDDLETON      CLOUDY    74  66  76 W14       29.89R
WATERTOWN      PTCLDY    73  73 100 SW5       29.86F
MONROE         CLOUDY    73  64  73 W21       29.90S
JANESVILLE     MOCLDY    79  70  73 W9        29.87S HX  81
$$

WIZ051-052-058>065-066-070>072-260000-
SOUTHEAST WISCONSIN

CITY           SKY/WX    TMP DP  RH WIND       PRES   REMARKS
MILWAUKEE      MOCLDY    73  67  81 SE8       29.88F
WAUKESHA       MOCLDY    70  66  88 SE12      29.89F
MILWAUKEE/TIMM CLOUDY    72  66  83 SE5       29.88F
RACINE         CLOUDY    73  67  81 S9        29.90F
BURLINGTON     PTCLDY    73  71  94 NE3       29.87F
KENOSHA        CLOUDY    74  69  85 SE10      29.89F
FOND DU LAC    CLOUDY    70  69  97 S7        29.86F
SHEBOYGAN      CLOUDY    67  65  93 S14       29.87S
WEST BEND      PTCLDY    68  66  94 CALM      29.88S
JUNEAU         CLOUDY    73  68  82 W6        29.88S
$$

LSZ147-162-260000-
LAKE SUPERIOR

STATION/POSITION TIME  TEMP    WIND        PRES    WAVE
                       AIR SEA DIR/SP/G            HT/PER
                 (UTC) (F)     (DEG/KT/KT) (MB)    (FT/S)
W MID LAKE BUOY  2250   64 61  250/ 23/ 29 1006.0F   2/ 4
DEVILS ISLAND    2300   61     230/ 18/ 21 1007.6R
SAXON HARBOR     2240   67     240/ 13/ 18 1008.5R
$$

LMZ867-665-643>646-260000-
LAKE MICHIGAN

STATION/POSITION TIME  TEMP    WIND        PRES    WAVE
                       AIR SEA DIR/SP/G            HT/PER
                 (UTC) (F)     (DEG/KT/KT) (MB)    (FT/S)
CHAMBERS ISLAND  2200   65     150/  5/  8 1010.5F
N MID LAKE BUOY  2250   70 68  150/ 16/ 19 1010.2F   3/ 5
NORTHPORT PIER   2220   68     150/ 13/ 18 1010.5F
KEWAUNEE LAKESHO 2200   66     180/ 16/ 18 1011.0F
SHEBOYGAN LAKESH 2300   65     190/ 20/ 21 1010.7F
PORT WASHINGTON  2200   65     200/ 10/ 15 1013.2
ATWATER BUOY     2200   66 54  130/  4/  6 1012.9R
MILWAUKEE LAKESH 2210   67     100/  8/  9   N/A
S MID LAKE BUOY  2250   74 72  130/ 16/ 19 1011.2F   2/ 4
KENOSHA   LAKESH 2300   71     150/ 13/ 16 1011.5F
$$

TC  - TEMPERATURE IN CELSIUS
VSB - VISIBILITY IN STATUTE MILES
WCI - WIND CHILL INDEX
HX  - HEAT INDEX





USA.gov is the U.S. government's official web portal to all federal, state and local government web resources and services.